Weather History for Worcester, MA

Change the Weather History Date:

Friday, February 8, 2013

  Actual Average Record
Temperature  
Mean Temperature 20 °F 26 °F  
Max Temperature 24 °F 33 °F 65 °F (1925)
Min Temperature 16 °F 18 °F -10 °F (1963)
Degree Days  
Heating Degree Days 45 39  
Month to date heating degree days 344 318  
Since 1 July heating degree days 3735 4091  
Cooling Degree Days 0 0  
Month to date cooling degree days 0 0  
Year to date cooling degree days 0 0  
Moisture  
Dew Point 16 °F    
Average Humidity 69    
Maximum Humidity 92    
Minimum Humidity 45    
Precipitation  
Precipitation 1.52 in 0.12 in 2.07 in (1971)
Month to date precipitation 1.56 0.91  
Year to date precipitation 3.51 4.40  
Sea Level Pressure  
Sea Level Pressure 29.99 in    
Wind  
Wind Speed 15 mph (NE)    
Max Wind Speed 33 mph    
Max Gust Speed 47 mph    
Visibility 3 miles    
Events Fog , Snow    
T = Trace of Precipitation, MM = Missing Value Source: NWS Daily Summary

Daily Weather History Graph

Daily Weather History Graph

Search for Another Location

Airport:

Trip Planner

Search our weather history database for the weather conditions in past years. The results will help you decide how hot, cold, wet, or windy it might be!

Date:

Astronomy

Feb. 08, 2013 Rise Set
Actual Time 6:52 AM EST 5:11 PM EST
Civil Twilight 6:23 AM EST 5:40 PM EST
Nautical Twilight 5:50 AM EST 6:13 PM EST
Astronomical Twilight 5:17 AM EST 6:46 PM EST
Moon 5:20 AM EST (2/8) 3:40 PM EST (2/8)
Length of Visible Light 11h 16m
Length of Day
10h 18m
Waning Crescent, 3% of the Moon is Illuminated
Feb 8
Waning Crescent
Feb 10
New
Feb 17
First Quarter
Feb 25
Full
Mar 4
Last Quarter

Hourly Weather History & Observations

Time (EST) Temp. Windchill Dew Point Humidity Pressure Visibility Wind Dir Wind Speed Gust Speed Precip Events Conditions
12:54 AM 21.0 °F 13.4 °F 6.1 °F 53% 30.43 in 10.0 mi East 5.8 mph - N/A   Overcast
1:07 AM 21.0 °F 12.4 °F 7.0 °F 55% 30.37 in 10.0 mi East 6.9 mph - N/A   Mostly Cloudy
1:54 AM 21.0 °F 12.4 °F 9.0 °F 60% 30.41 in 10.0 mi ENE 6.9 mph - N/A   Overcast
2:54 AM 21.9 °F 12.5 °F 12.0 °F 66% 30.38 in 10.0 mi ENE 8.1 mph - N/A   Overcast
3:54 AM 21.9 °F 12.5 °F 12.0 °F 66% 30.35 in 10.0 mi ENE 8.1 mph - N/A   Overcast
4:54 AM 21.9 °F 11.7 °F 14.0 °F 72% 30.34 in 10.0 mi ENE 9.2 mph - N/A   Overcast
5:37 AM 23.0 °F 13.9 °F 15.1 °F 72% 30.27 in 10.0 mi East 8.1 mph - N/A   Overcast
5:54 AM 23.0 °F 13.9 °F 17.1 °F 78% 30.32 in 10.0 mi ENE 8.1 mph - N/A   Overcast
6:54 AM 23.0 °F 13.1 °F 17.6 °F 80% 30.25 in 10.0 mi ENE 9.2 mph - N/A   Overcast
7:54 AM 24.1 °F 14.4 °F 19.0 °F 81% 30.29 in 10.0 mi ENE 9.2 mph - N/A   Overcast
8:54 AM 23.0 °F 12.4 °F 19.9 °F 88% 30.26 in 10.0 mi NE 10.4 mph - 0.00 in   Overcast
9:42 AM 23.0 °F 12.4 °F 19.9 °F 88% 30.19 in 1.8 mi ENE 10.4 mph - 0.00 in Snow Light Snow
9:54 AM 23.0 °F 12.4 °F 19.9 °F 88% 30.24 in 0.8 mi NE 10.4 mph - 0.00 in Snow Light Snow
10:20 AM 23.0 °F 12.4 °F 19.9 °F 88% 30.18 in 0.8 mi ENE 10.4 mph - 0.02 in Snow Light Snow
10:54 AM 24.1 °F 13.1 °F 21.0 °F 88% 30.21 in 0.5 mi NE 11.5 mph 16.1 mph 0.03 in Fog , Snow Light Snow
11:06 AM 24.1 °F 12.5 °F 21.0 °F 88% 30.14 in 0.5 mi NE 12.7 mph 18.4 mph 0.01 in Fog , Snow Snow
11:54 AM 24.1 °F 12.0 °F 21.0 °F 88% 30.14 in 0.2 mi NE 13.8 mph 20.7 mph 0.03 in Fog , Snow Snow
12:08 PM 23.0 °F 11.7 °F 19.9 °F 88% 30.08 in 0.5 mi NE 11.5 mph 18.4 mph 0.01 in Fog , Snow Light Snow
12:54 PM 21.9 °F 10.4 °F 19.0 °F 89% 30.09 in 0.5 mi NE 11.5 mph 20.7 mph 0.03 in Fog , Snow Snow
1:16 PM 21.9 °F 10.4 °F 19.0 °F 89% 30.03 in 0.5 mi NE 11.5 mph 20.7 mph 0.01 in Fog , Snow Snow
1:26 PM 21.9 °F 9.2 °F 19.0 °F 89% 30.01 in 0.2 mi NE 13.8 mph 21.9 mph 0.02 in Fog , Snow Snow
1:54 PM 21.0 °F 8.6 °F 18.0 °F 88% 30.05 in 0.2 mi NE 12.7 mph 24.2 mph 0.03 in Fog , Snow Snow
2:32 PM 21.0 °F 7.6 °F 18.0 °F 88% 29.96 in 0.5 mi NE 15.0 mph 29.9 mph 0.02 in Fog , Snow Snow
2:40 PM 21.0 °F 8.1 °F 18.0 °F 88% 29.96 in 0.2 mi NE 13.8 mph 28.8 mph 0.02 in Fog , Snow Snow
2:54 PM 19.9 °F 6.7 °F 18.0 °F 92% 30.01 in 0.5 mi NE 13.8 mph 21.9 mph 0.04 in Fog , Snow Snow
3:42 PM 19.9 °F 5.7 °F 18.0 °F 92% 29.90 in 0.8 mi NE 16.1 mph 31.1 mph 0.01 in Snow Light Snow
3:54 PM 19.9 °F 4.3 °F 18.0 °F 92% 29.94 in 0.5 mi NE 19.6 mph 32.2 mph 0.02 in Fog , Snow Snow
4:54 PM 19.9 °F 3.5 °F 17.1 °F 89% 29.88 in 0.5 mi NE 21.9 mph 32.2 mph 0.02 in Fog , Snow Light Snow
5:11 PM 19.9 °F 4.8 °F 17.1 °F 89% 29.82 in 1.0 mi NE 18.4 mph 34.5 mph 0.00 in Snow Light Snow
5:34 PM 19.9 °F 4.8 °F 17.1 °F 89% 29.82 in 0.8 mi NE 18.4 mph 31.1 mph 0.02 in Snow Light Snow
5:54 PM 19.9 °F 4.3 °F 17.1 °F 89% 29.85 in 0.8 mi NE 19.6 mph 35.7 mph 0.04 in Snow Light Snow
6:54 PM 19.0 °F 2.7 °F 16.0 °F 88% 29.80 in 0.2 mi NNE 20.7 mph 38.0 mph 0.08 in Fog , Snow Light Snow
7:08 PM 19.0 °F 2.4 °F 16.0 °F 88% 29.73 in 0.5 mi NNE 21.9 mph 33.4 mph 0.03 in Fog Light Freezing Fog
7:54 PM 19.0 °F 2.7 °F 16.0 °F 88% 29.75 in 0.2 mi NE 20.7 mph 38.0 mph 0.10 in Fog Light Freezing Fog
8:05 PM 19.0 °F 2.4 °F 16.0 °F 88% 29.69 in 0.2 mi NNE 21.9 mph 36.8 mph N/A Fog Light Freezing Fog
8:16 PM 19.0 °F 2.4 °F 16.0 °F 88% 29.68 in 0.2 mi NNE 21.9 mph 36.8 mph N/A Fog Light Freezing Fog
8:54 PM 19.0 °F 0.6 °F 16.0 °F 88% 29.71 in 0.2 mi NE 27.6 mph 42.6 mph N/A Fog Light Freezing Fog
9:51 PM 17.6 °F -1.0 °F 14.0 °F 86% 29.60 in 0.2 mi NNE 26.5 mph 44.9 mph N/A Fog Light Freezing Fog
9:54 PM 17.1 °F -1.0 °F 14.0 °F 88% 29.65 in 0.2 mi NNE 24.2 mph 44.9 mph N/A Fog Light Freezing Fog
10:14 PM 17.1 °F -1.7 °F 14.0 °F 88% 29.59 in 0.2 mi NNE 26.5 mph 42.6 mph N/A Fog Light Freezing Fog
10:29 PM 16.0 °F -0.9 °F 12.9 °F 88% 29.59 in 0.2 mi NNE 19.6 mph 47.2 mph N/A Fog Light Freezing Fog
10:54 PM 16.0 °F -2.1 °F 12.9 °F 88% 29.63 in 0.2 mi NNE 23.0 mph 38.0 mph N/A Fog Light Freezing Fog
11:25 PM 16.0 °F -2.8 °F 12.0 °F 84% 29.57 in 0.5 mi NNE 25.3 mph 39.1 mph N/A Fog Light Freezing Fog
11:46 PM 16.0 °F -1.7 °F 12.0 °F 84% 29.56 in 0.2 mi NNE 21.9 mph 39.1 mph N/A Fog Light Freezing Fog
11:54 PM 16.0 °F -2.1 °F 12.0 °F 84% 29.61 in 0.2 mi NNE 23.0 mph 38.0 mph N/A Fog Light Freezing Fog